W4BBB Weather Reports


Display with metric or nautical units.
time (UTC)temp
F
wind
direction
speed
MPH
gust
MPH
rain 1hr
in
rain 24hr
in
rain mn
in
humidity
%
barometer
mb
20260508230051 61 63 0.0 1.0 0.00 0.00 0.00 61 1021.2
20260508224551 61 63 0.0 0.0 0.00 0.00 0.00 59 1021.1
20260508223049 62 63 0.0 0.0 0.00 0.00 0.00 57 1021.3
20260508221544 63 63 0.0 3.0 0.00 0.00 0.00 53 1021.4
20260508220041 64 341 0.0 0.0 0.00 0.00 0.00 53 1021.3
20260508214557 65 218 0.0 0.0 0.00 0.00 0.00 54 1021.5
20260508213039 66 214 0.0 0.0 0.00 0.00 0.00 55 1021.6
20260508211539 66 198 0.0 0.0 0.00 0.00 0.00 58 1021.7
20260508210038 65 198 0.0 0.0 0.00 0.00 0.00 57 1021.6
20260508204537 65 198 0.0 0.0 0.00 0.00 0.00 56 1021.7
20260508203034 65 198 0.0 0.0 0.00 0.00 0.00 59 1021.8
20260508201533 66 198 0.0 0.0 0.00 0.00 0.00 56 1021.8
20260508200030 65 198 0.0 0.0 0.00 0.00 0.00 56 1022.4
20260508194528 65 198 0.0 0.0 0.00 0.00 0.00 54 1022.5
20260508193025 66 198 0.0 0.0 0.00 0.00 0.00 51 1023.1
20260508191524 67 198 0.0 0.0 0.00 0.00 0.00 49 1023.4
20260508190038 68 105 0.0 0.0 0.00 0.00 0.00 52 1023.6
20260508184528 68 105 0.0 0.0 0.00 0.00 0.00 50 1023.8
20260508183028 68 40 0.0 0.0 0.00 0.00 0.00 50 1024.1
20260508181515 67 41 0.0 0.0 0.00 0.00 0.00 49 1024.1
20260508180012 66 41 0.0 0.0 0.00 0.00 0.00 53 1024.2
20260508174510 67 41 0.0 0.0 0.00 0.00 0.00 51 1024.5
20260508173006 64 41 0.0 0.0 0.00 0.00 0.00 55 1024.8
20260508171504 63 41 0.0 0.0 0.00 0.00 0.00 54 1025.1
20260508170107 62 41 0.0 0.0 0.00 0.00 0.00 57 1025.4
20260508164600 60 41 0.0 0.0 0.00 0.00 0.00 57 1025.4
20260508163054 61 341 0.0 0.0 0.00 0.00 0.00 56 1025.8
20260508161600 59 341 0.0 0.0 0.00 0.00 0.00 55 1026.2
20260508160052 58 341 0.0 2.0 0.00 0.00 0.00 57 1026.2
20260508154547 58 341 0.0 0.0 0.00 0.00 0.00 57 1026.4
20260508153053 58 341 0.0 3.0 0.00 0.00 0.00 56 1026.6
20260508151541 59 234 0.0 0.0 0.00 0.00 0.00 55 1026.8
20260508150037 60 234 0.0 0.0 0.00 0.00 0.00 54 1026.8
20260508144535 60 234 0.0 0.0 0.00 0.00 0.00 53 1026.7
20260508143030 58 234 0.0 0.0 0.00 0.00 0.00 53 1026.7
20260508141526 58 234 0.0 0.0 0.00 0.00 0.00 55 1026.9
20260508140024 57 234 0.0 1.0 0.00 0.00 0.00 56 1027.0
20260508134518 56 223 0.0 2.0 0.00 0.00 0.00 56 1026.9
20260508133014 55 226 0.0 5.0 0.00 0.00 0.00 52 1026.9
20260508131510 53 176 0.0 4.0 0.00 0.00 0.00 55 1026.7
20260508130010 53 186 0.0 5.0 0.00 0.00 0.00 54 1026.8
20260508124503 51 194 0.0 0.0 0.00 0.00 0.00 55 1026.8
20260508123116 49 193 0.0 0.0 0.00 0.00 0.00 55 1026.6
20260508121607 0 0.0 0.0 0.00 0.00 0.00 1026.4
20260508120106 0 0.0 0.0 0.00 0.00 0.00 1026.2
20260508114556 0 0.0 0.0 0.00 0.00 0.00 1026.0
20260508113042 0 0.0 0.0 0.00 0.00 0.00 1025.8
20260508111541 0 0.0 0.0 0.00 0.00 0.00 1025.5
20260508110034 0 0.0 0.0 0.00 0.00 0.00 1025.3
20260508104532 0 0.0 0.0 0.00 0.00 0.00 1025.1
20260508103032 0 0.0 0.0 0.00 0.00 0.00 1024.9
20260508101520 0 0.0 0.0 0.00 0.00 0.00 1024.9
20260508100016 0 0.0 0.0 0.00 0.00 0.00 1024.6
20260508094511 0 0.0 0.0 0.00 0.00 0.00 1024.6
20260508093008 0 0.0 0.0 0.00 0.00 0.00 1024.5
20260508091507 0 0.0 0.0 0.00 0.00 0.00 1024.6
20260508090113 0 0.0 0.0 0.00 0.00 0.00 1024.6
20260508084557 0 0.0 0.0 0.00 0.00 0.00 1024.5
20260508083050 0 0.0 0.0 0.00 0.00 0.00 1024.5
20260508081545 0 0.0 0.0 0.00 0.00 0.00 1024.6
20260508080040 0 0.0 0.0 0.00 0.00 0.00 1024.4
20260508074536 0 0.0 0.0 0.00 0.00 0.00 1024.6
20260508073036 0 0.0 0.0 0.00 0.00 0.00 1024.5
20260508071532 0 0.0 0.0 0.00 0.00 0.00 1024.7
20260508070025 0 0.0 0.0 0.00 0.00 0.00 1024.7
20260508064525 0 0.0 0.0 0.00 0.00 0.00 1024.8
20260508063016 0 0.0 0.0 0.00 0.00 0.00 1024.8
20260508061511 0 0.0 0.0 0.00 0.00 0.00 1024.7
20260508060005 0 0.0 0.0 0.00 0.00 0.00 1025.0
20260508054503 0 0.0 0.0 0.00 0.00 0.00 1025.0
20260508053106 0 0.0 0.0 0.00 0.00 0.00 1024.9
20260508051553 0 0.0 0.0 0.00 0.00 0.00 1025.1
20260508050048 0 0.0 0.0 0.00 0.00 0.00 1025.0
20260508044544 0 0.0 0.0 0.00 0.00 0.00 1024.9
20260508043054 0 0.0 0.0 0.00 0.00 0.00 1024.8
20260508041545 0 0.0 0.0 0.00 0.00 0.00 1024.8
20260508040037 0 0.0 0.0 0.00 0.00 0.00 1024.6
20260508034527 0 0.0 0.0 0.00 0.00 0.00 1024.4
20260508033022 0 0.0 0.0 0.00 0.00 0.00 1024.6
20260508031520 0 0.0 0.0 0.00 0.00 0.00 1024.7
20260508030014 0 0.0 0.0 0.00 0.00 0.00 1024.5
20260508024509 0 0.0 0.0 0.00 0.00 0.00 1024.4
20260508023007 0 0.0 0.0 0.00 0.00 0.00 1024.6
20260508021501 0 0.0 0.0 0.00 0.00 0.00 1024.5
20260508014553 0 0.0 0.0 0.00 0.00 0.00 1023.8
20260508013055 0 0.0 0.0 0.00 0.00 0.00 1023.8
20260508011549 0 0.0 0.0 0.00 0.00 0.00 1023.6
20260508010038 0 0.0 0.0 0.00 0.00 0.00 1023.5
20260508004534 0 0.0 0.0 0.00 0.00 0.00 1023.6
20260508003031 51 64 0.0 0.0 0.00 0.00 0.00 1 1023.3
20260508001546 51 64 0.0 0.0 0.00 0.00 0.00 1 1023.2
20260508000021 52 64 0.0 0.0 0.00 0.00 0.00 1 1023.1
20260507234518 52 64 0.0 0.0 0.00 0.00 0.00 1 1022.9
20260507233016 52 64 0.0 0.0 0.00 0.00 0.00 1 1022.9
20260507231509 52 64 0.0 0.0 0.00 0.00 0.00 1 1023.1